200 serials | recovery evaluation version registra… cardrecovery v6.00 bulid 2012 cardrecovery v6.00 keygen cardrecovery v6.00 bild 2012 baraha 10.6 registration key free registration key cardrecovery v6.00 buil… cardrecovery v 6.0 registration

Date Name Success Rate
2009-10-17 06:20:07 CardRecovery V3.60 63%
2009-10-22 23:45:49 CardRecovery V3.60 39%
2012-12-12 05:13:23 CardRecovery 55%
2011-09-08 10:23:58 CardRecovery 4.10 build 1220 71%
2012-12-12 05:13:29 CardRecovery v5.30 build 1206 50%
2012-12-12 05:13:25 Cardrecovery v 5.20 build 0212-proxy 41%
2012-12-12 05:13:31 CardRecovery v5.30 build 1206 Rai Lally 66%
2011-09-08 10:42:09 DAS Registration 1.5.2 65%
2011-09-08 10:42:09 DAS Registration For CW5 45%
2011-09-08 10:42:09 DAS Registration v1.5.2 53%
2009-10-17 06:27:02 Lazarus Registration DLL V1.0 56%
2009-10-22 23:48:48 MemoriesonTV Registration 0%
2009-10-22 23:49:42 Registration Wizard 70%
2011-09-08 10:06:47 AnetHelpTool v4.02 Registration 52%
2011-09-08 10:22:13 ByeLines Registration 74%
2011-09-08 10:57:42 Ftgate Registration 72%
2011-09-08 11:15:16 Infodex v2.10 Registration 45%
2011-09-08 11:25:08 Lazarus Registration DLL v1.0 47%
2011-09-08 11:27:46 Mac Opener v3.0 Registration 57%
2011-09-08 11:32:59 mIRC v4.5+ Registration 35%
2011-09-08 11:32:59 mIRC v4.52 Registration 51%
2011-09-08 12:37:02 Quant v2.0 Registration 52%
2011-09-08 12:41:14 Registration Suite 1.0 56%
2011-09-08 12:41:14 Registration Suite v1.0 69%
2011-09-08 12:41:14 Registration Wizard Pro 5.01 46%
2011-09-08 12:41:14 Registration Wizard Pro v5.01 60%
2011-09-08 13:18:59 WinHacker 95 v2.02 Registration 57%
2012-12-13 05:12:00 Registration Key : 526EFEF086E09600449E667EA2DAE8E2E6D642BC 65%
2009-10-22 23:27:21 Ardamax Keylogger 2.9 Registration 56%
2009-10-22 23:48:49 Microsoft Registration Hacker - 39%
2009-10-22 23:49:57 SoudForge ALL (No Registration Requiered) 0%
2009-10-22 23:50:26 Valve's Registration Armor Key-Gen 60%
2011-09-08 10:21:42 Browserola v1.01 Temp. Registration 0%
2011-09-08 10:56:11 FontLook v3.1 Registration Code 74%
2011-09-08 11:31:51 Microsoft Registration Hacker 0%
2011-09-08 11:31:51 Microsoft Registration Hacker - 0%
2011-09-08 11:31:51 Microsoft Registration HackerMSREGHACK 0%
2011-09-08 11:32:07 Microstation v5.xx.xx & 95 FULL REGISTRATION 73%
2011-09-08 11:42:43 Nic O'Matic 1.6 Registration Code 69%
2011-09-08 11:42:43 Nic O'Matic v1.6 Registration Code 48%
2011-09-08 12:34:57 PolyTrans V1.2E Registration Activator CD-Key 73%
2011-09-08 12:34:57 PolyView v2.9b16 Registration 0%
2011-09-08 12:54:09 Time Registration (German) 1.10 0%
2011-09-08 12:59:30 Super Collapse Registration 89%
2011-09-08 13:23:15 Yipe! II for Windows Registration #154 0%
2012-12-13 08:49:53 Softwarenetz Time Registration v1.10 28%
2012-12-13 08:49:56 Softwarenetz Time Registration v1.14 0%
2012-12-13 15:34:10 Valve's Registration Armor Key-Gen 0%
2009-10-22 23:48:17 Internet Download Manager Registration 55%
2011-09-08 10:25:56 Cheyenne Bitware V4.0 Registration Number 53%
2011-09-08 11:31:51 Microsoft Registration Hacker MSREGHACK 69%
2011-09-08 11:31:51 Microsoft Visual Basic 5 registration cd key 72%
2011-09-08 12:54:14 TimeSlips 10.5 enterprise - with registration code! 54%
2012-12-12 08:07:32 Download avast 5.0.667 Antivirus registration 52%
2012-12-13 05:12:00 Registration Code For PDFZilla Giveaway 42%
2012-12-13 05:12:00 Registration key for x-3gp-video-converter-38540 81%
2012-12-13 13:12:40 Total Image Converter Registration Key 61%
2011-09-08 11:30:16 MediaBlaze 98 v1.01 Win95/NT User: delphic Registration 0%
2012-12-13 05:12:00 Registration code:-826510-16101-266644 59%
2012-12-13 00:30:48 Paragon Backup & Recovery 2012 Free (German) 100%
2009-10-22 23:49:02 Norton Internet Security 2005 Registration Guide 0%
2011-09-08 09:58:40 Acoustica Mixcraft v1.10 Build 15 Registration Info by MaBi 60%
2012-12-12 19:40:26 Microsoft Visual Basic 2008 Express Edition Registration key 50%
2012-12-12 04:11:53 Bild steuer 2012 31%
2012-12-12 03:21:40 Avg anti-virus free edition 2012 100%
2012-12-12 12:33:08 Free Audio Editor Deluxe 2012.v8.1.1 49%
2012-12-12 22:54:19 Norton Antivirus 2012 (Russian and other languages) (This key works only up to 15.06.2012) 89%
2012-12-12 19:41:21 Microsoft Visual Studio 2010&2012 Ultimate Serial Code Free 64%
2012-12-12 03:19:50 AVG 2012 VERSION 0%
2012-12-11 22:45:30 3D Studio Max 2012+3DS Max Design 2012 (x32-x64)+SP1 47%
2012-12-13 15:15:24 Uniblue DriverScanner 2012 10-5-2012 40%
2012-12-13 00:42:15 Password Recovery Bundle 2012.v1.90 67%
2012-12-13 00:42:18 Password Recovery Bundle 2012.v2.2 12%
2012-12-13 00:42:22 Password Recovery Bundle 2012.v2.5 48%
2012-12-12 08:19:18 Driver scanner 2012 version 4.0.3.4 70%
2011-09-08 11:15:04 ImTOO.DVD.Creator Version: 2.0.10.buil.0427 0%
2012-12-11 22:48:04 3ds max 2012 24%
2012-12-12 03:19:16 AVG 2012 54%
2012-12-12 03:19:40 AVG 2012 0%
2012-12-12 03:28:04 AVG-2012 0%
2012-12-12 14:45:44 IDM 2012 58%
2012-12-12 22:41:01 Nod 32 - 12/2012 53%
2012-12-12 22:41:03 Nod 32 2012 0%
2012-12-13 01:25:01 Pes 2012 0%
2009-10-22 23:50:08 Teleport Pro 1.29.2012 73%
2011-09-08 12:52:19 Teleport Pro 1.29.2012 73%
2011-09-08 12:52:21 Teleport Pro v1.29.2012 40%
2012-12-12 02:58:59 Autocad 2012 72%
2012-12-12 02:58:59 Autocad 2012 64-bit 75%
2012-12-12 02:59:02 Autocad lt 2012 72%
2012-12-12 02:59:50 Autodesk 3ds max 2012 72%
2012-12-12 03:23:04 Avg antivirus 2012 86%
2012-12-12 03:24:17 AVG Antivirus Pro 2012 62%
2012-12-12 03:26:44 AVG PC TUNE UP 2012 0%
2012-12-12 03:27:04 AVG PC Tuneup 2012 20%
2012-12-12 03:27:13 Avg pctuneup 2012 0%
2012-12-12 03:27:51 Avg tunep 2012 100%
2012-12-12 04:14:29 Bit defender 2012 0%
2012-12-12 06:38:02 CorelCad 2012 56%
2012-12-12 10:57:07 Eset nod 32 4.2.40 òã 2012 0%
2012-12-12 10:57:11 Eset nod 32 29/06/2012 0%
2012-12-12 11:47:01 Fifa 2012 83%
2012-12-12 16:44:16 Kaspersky 2012 74%
2012-12-12 16:48:36 Kaspersky kis 2012 14%
2012-12-12 16:49:02 kaspresky 2012 20%
2012-12-12 17:16:37 KrystalShaper 2012 60%
2012-12-12 22:00:40 NET protector 2012 94%
2012-12-12 22:41:43 Nod 32 v4 licenta 2012 0%
2012-12-12 22:41:46 Nod antivirus 2012 0%
2012-12-12 22:50:52 Norton 2012 0%
2012-12-12 22:50:53 Norton 360 2012 20%
2012-12-12 22:57:43 Norton360 2012 52%
2012-12-13 00:47:20 PC Cleaner Pro 2012 67%
2012-12-13 00:48:45 Pc mightymax 2012 71%
2012-12-13 01:04:39 Pdf suite 2012 65%
2012-12-13 03:06:41 Powersuite 2012 90%
2012-12-13 03:06:44 Powersuite 2012 3.0.55 0%
2012-12-13 05:22:29 RegistryBooster 2012 6.0.10.7 20%
2012-12-13 06:10:09 Roxio 2012 0%
2012-12-13 09:40:45 Speed up my pc 2012 81%
2012-12-13 09:40:48 Speed up my pc 2012 5.1.5.2. 13%
2012-12-13 09:47:23 SpeedUpMyPC 2012 60%
2012-12-13 09:47:25 Speedupmypc 2012 5.1.5.2 100%
2012-12-13 10:12:19 SQL Server 2012 74%
2012-12-13 10:12:22 SQL server 2012 EE 54%
2012-12-13 10:51:16 Sudoku Up 2012.v6.0 53%
2012-12-13 11:17:31 SuperRam 6.5.21.2012 0%
2012-12-13 13:47:10 Tune up 2012 0%
2012-12-13 13:51:29 TuneUp 2012 0%
2012-12-13 15:37:10 VariCAD 2012.v1.02 0%
2012-12-13 15:37:13 VariCAD 2012.v1.03 0%
2012-12-13 15:37:16 VariCAD 2012.v1.04 0%
2012-12-13 15:37:19 VariCAD 2012.v1.05 0%
2012-12-13 15:37:22 VariCAD 2012.v1.06 0%
2012-12-13 15:37:24 VariCAD 2012.v1.07 40%
2012-12-13 15:37:27 VariCAD 2012.v1.08 0%
2012-12-13 15:37:28 VariCAD 2012.v2.01 0%
2012-12-13 15:37:28 VariCAD 2012.v2.02 0%
2012-12-13 15:37:28 VariCAD 2012.v2.06 0%
2012-12-13 15:37:29 VariCAD 2012.v2.07 0%
2012-12-13 16:59:31 WashAndGo 2012 46%
2012-12-13 17:44:54 WinCatalog 2012.v3.6.1.814 10%
2012-12-13 20:54:05 Your Uninstaller PRO [v.7.4.2012.5] 80%
2009-10-22 23:27:27 Avast Pro Last Till 2012! 60%
2009-10-22 23:48:51 Mp3 BlasterX 2003 4.0.2012 0%
2009-10-22 23:50:08 Teleport Pro 1.29 Build 2012 0%
2011-09-08 11:34:02 Mp3 BlasterX 2003 4.0.2012 0%
2011-09-08 11:34:02 Mp3 BlasterX 2003 v4.0.2012 40%
2011-09-08 12:52:19 Teleport Pro 1.29 Build 2012 0%
2011-09-08 12:52:21 Teleport Pro v1.29.2012 by CHiCNCREAM 0%
2012-12-11 23:59:19 Adresse 2012.portable v4.0.2.157 0%
2012-12-12 00:27:01 Agrar Simulator 2012 60%
2012-12-12 02:33:31 Ashampoo.Office.2012 17%
2012-12-12 02:50:30 Aurora 3D Presentation 2012 78%
2012-12-12 02:50:30 Aurora 3D Presentation 2012.v12.03.02 45%
2012-12-12 03:00:50 Autodesk Maya 2012 56%
2012-12-12 03:01:09 Autodesk Softimage 2012 80%
2012-12-12 03:19:42 AVG 2012 Anti-Virus 0%
2012-12-12 03:19:44 AVG 2012 Expires 2018 0%
2012-12-12 03:19:46 AVG 2012 Unilimited License 87%
2012-12-12 03:21:52 AVG Anti-Virus Pro 2012 0%
2012-12-12 03:24:40 Avg internet security 2012 0%
2012-12-12 03:28:00 AVG Tuneup Utilities 2012 0%
2012-12-12 04:14:50 Bit defender professional plus 2012 0%
2012-12-12 04:16:36 Bitdefender Antivirus plus 2012 25%
2012-12-12 04:36:34 BRASFOOT 2012-Build 1 0%
2012-12-12 04:36:36 Brasfoot 2012-Build 2 100%
2012-12-12 05:42:18 Child Control 2012 12.451 0%
2012-12-12 06:19:36 Confixx 3.3 PRO expired 2012 0%
2012-12-12 08:19:14 Driver Scanner 2012 64%
2012-12-12 08:19:16 Driver Scanner 2012 v 4.0.4.1 0%
2012-12-12 11:00:50 ESET Nod32 SS/AV Feb.11 2012 0%
2012-12-12 11:55:34 Finale Notepad 2012 71%
2012-12-12 13:22:20 Glary Utilities PRO 2012 0%
2012-12-12 15:36:19 Infragistics NetAdvantage for ASP NET 2012.Vol 1 20%
2012-12-12 15:37:38 Infragistics NetAdvantage for WPF 2012.Vol 1 0%
2012-12-12 16:44:14 Kaspersky 2011-2012 52%
2012-12-12 16:44:20 Kaspersky 2012 Beta key:- 15%
2012-12-12 16:44:22 Kaspersky 2012(90days) 59%
2012-12-12 16:46:58 Kaspersky antivirus 2012 47%
2012-12-12 17:22:01 Landwirtschafts-Simulator 2012 0%
2012-12-12 18:23:29 MahJong Suite 2012.v9.0 93%
2012-12-12 19:31:58 Microsoft office 2012 pro + 95%
2012-12-12 19:32:02 Microsoft Office 2012/365/15 44%
2012-12-12 19:58:53 Mindjet MindManager 2012.v10.0.445 19%
2012-12-12 19:58:56 Mindjet MindManager 2012.v10.0.493 65%
2012-12-12 19:59:00 Mindjet MindManager 2012.v10.1.459 0%
2012-12-12 19:59:04 Mindjet MindManager 2012.v10.2.209 32%
2012-12-12 22:00:39 Net Protector 2011- 2012 86%
2012-12-12 22:54:16 Norton Antivirus 2012 0%
2012-12-12 22:54:25 Norton AntiviRus 2012 Key 73%
2012-12-12 23:03:50 NPAV antivirus 2012 49%
2012-12-13 00:21:11 Panda antivirus pro 2012 54%
2012-12-13 01:25:04 PES 2012 Pro Evolution Soccer 12 59%
2012-12-13 03:34:45 Pro Evolution Soccer 2012 60%
2012-12-13 04:09:26 Quardian antivirus 2012 56%
2012-12-13 04:15:28 Quick heal 2012 40%
2012-12-13 04:57:00 Recover my files 2012 87%
2012-12-13 05:12:07 Registry Booster 2012 64%
2012-12-13 05:12:08 Registry booster 2012 v 6.0.10.7 0%